Location: ???? ???? ?????
(31.2680°N, 31.7283°E)
Time: 02:54:16
(UTC+00:00)

CZ-2C R/B - Pass Details

Date: 13 July 2020
Orbit: 703 x 909 km, 98.1° (Epoch: 11 August)

Event Time Altitude Azimuth Distance (km) Brightness Sun altitude
Rises 17:20:03 0° 171° (S) 3,481 6.0 -4.8°
Reaches altitude 10° 17:22:30 10° 172° (S) 2,525 5.3 -5.2°
Maximum altitude 17:28:07 75° 258° (WSW) 880 3.5 -6.3°
Drops below altitude 10° 17:33:30 10° 344° (NNW) 2,414 6.3 -7.3°
Sets 17:35:48 0° 346° (NNW) 3,317 7.0 -7.7°
